Location: Chuathbaluk
(61.5726°N, 159.2454°W)
Time: 00:14:46
(UTC+00:00)

SEEDS - Visible Passes

Search period start: 24 January 2021 00:00
Search period end: 03 February 2021 00:00
Orbit: 584 x 604 km, 97.6° (Epoch: 23 January)

Date Brightness Start Highest point End Pass type
(mag) Time Alt. Az. Time Alt. Az. Time Alt. Az.
24 Jan ? 04:25:02 10° WSW 04:26:45 12° W 04:28:29 10° NW visible
24 Jan ? 14:19:44 10° NE 14:21:52 14° E 14:23:59 10° ESE visible
24 Jan ? 15:54:10 10° NNE 15:58:19 65° ESE 16:02:28 10° S visible
24 Jan ? 17:30:10 10° N 17:33:43 28° NW 17:37:16 10° WSW visible
25 Jan ? 04:35:24 10° W 04:36:09 10° WNW 04:36:54 10° WNW visible
25 Jan ? 14:28:40 10° NE 14:31:14 16° E 14:33:49 10° ESE visible
25 Jan ? 16:03:25 10° NNE 16:07:35 77° ESE 16:11:46 10° SSW visible
25 Jan ? 17:39:29 10° N 17:42:54 25° NW 17:46:17 10° WSW visible
26 Jan ? 14:37:40 10° NE 14:40:36 18° E 14:43:32 10° SE visible
26 Jan ? 16:12:39 10° NNE 16:16:51 89° ESE 16:21:02 10° SSW visible
26 Jan ? 17:48:50 10° N 17:52:03 22° NW 17:55:16 10° WSW visible
27 Jan ? 03:14:14 10° SSW 03:18:05 36° W 03:21:57 10° NNW visible
27 Jan ? 14:46:44 10° NE 14:49:57 21° E 14:53:10 10° SE visible
27 Jan ? 16:21:55 10° NNE 16:26:06 79° WNW 16:30:16 10° SSW visible
27 Jan ? 17:58:11 10° N 18:01:12 20° NW 18:04:12 10° W visible
28 Jan ? 03:23:41 10° SSW 03:27:24 31° W 03:31:08 10° NNW visible
28 Jan ? 14:55:51 10° NE 14:59:18 24° E 15:02:45 10° SSE visible
28 Jan ? 16:31:10 10° NNE 16:35:19 67° WNW 16:39:29 10° SSW visible
28 Jan ? 18:07:33 10° N 18:10:20 18° NW 18:13:07 10° W visible
29 Jan ? 03:33:11 10° SSW 03:36:43 27° W 03:40:17 10° NNW visible
29 Jan ? 15:04:58 10° NNE 15:08:38 28° E 15:12:16 10° SSE visible
29 Jan ? 16:40:27 10° NNE 16:44:33 57° WNW 16:48:39 10° SW visible
30 Jan ? 03:42:43 10° SW 03:46:03 23° W 03:49:25 10° NW visible
30 Jan ? 15:14:08 10° NNE 15:17:57 33° E 15:21:44 10° SSE visible
30 Jan ? 16:49:43 10° N 16:53:46 49° WNW 16:57:48 10° SW visible
31 Jan ? 03:52:19 10° SW 03:55:24 20° W 03:58:30 10° NW visible
31 Jan ? 15:23:19 10° NNE 15:27:15 38° E 15:31:11 10° SSE visible
31 Jan ? 16:59:00 10° N 17:02:58 43° WNW 17:06:55 10° SW visible
01 Feb ? 04:01:58 10° SW 04:04:45 17° W 04:07:32 10° NW visible
01 Feb ? 15:32:30 10° NNE 15:36:33 45° E 15:40:34 10° S visible
01 Feb ? 17:08:18 10° N 17:12:09 37° WNW 17:16:01 10° SW visible
02 Feb ? 04:11:44 10° WSW 04:14:07 15° W 04:16:30 10° NW visible
02 Feb ? 14:07:53 10° ENE 14:09:13 11° E 14:10:33 10° E visible
02 Feb ? 15:41:43 10° NNE 15:45:49 53° E 15:49:56 10° S visible
02 Feb ? 17:17:36 10° N 17:21:20 32° WNW 17:25:05 10° WSW visible
